User: anonymous   Login
Location: Pl�tzky
(52.0521°N, 11.8020°E)
Time: 21:10:48
(UTC+00:00)
Language:

Cosmos 1515 Rocket - Orbit

View from above orbital plane
View from above orbital plane
View from above satellite
View from above satellite

Ground track
Ground track

The orbit data is extracted from the following two-line orbital elements,

1 14552U 83122B   20027.18884501 +.00000076 +00000-0 +63864-5 0  9994
2 14552 082.5234 263.4422 0015743 252.1631 107.7867 14.83497817929521
Epoch (UTC): 27 January 2020 04:31:56
Eccentricity: 0.0015743
inclination: 82.5234°
perigee height: 607 km
apogee height: 629 km
right ascension of ascending node: 263.4422°
argument of perigee: 252.1631°
revolutions per day: 14.83497817
mean anomaly at epoch: 107.7867°
orbit number at epoch: 92952

The dashed part of the orbit path shows where the satellite is in the earth's shadow,  

DLR